| time (UTC) | temp F | wind direction | speed knots | gust knots | rain 1hr in | rain 24hr in | rain mn in | humidity % | barometer mb |
| 20260506195751 | 45 | 177 | 1.7 | 1.7 | 0.00 | 0.00 | 0.00 | 48 | 1016.5 |
| 20260506195248 | 45 | 243 | 1.7 | 2.6 | 0.00 | 0.00 | 0.00 | 49 | 1016.6 |
| 20260506194745 | 45 | 173 | 1.7 | 1.7 | 0.00 | 0.00 | 0.00 | 50 | 1016.5 |
| 20260506194241 | 44 | 359 | 2.6 | 4.3 | 0.00 | 0.00 | 0.00 | 50 | 1016.5 |
| 20260506193739 | 44 | 186 | 0.9 | 1.7 | 0.00 | 0.00 | 0.00 | 51 | 1016.6 |
| 20260506193236 | 44 | 250 | 1.7 | 2.6 | 0.00 | 0.00 | 0.00 | 49 | 1016.6 |
| 20260506192732 | 44 | 169 | 3.5 | 6.1 | 0.00 | 0.00 | 0.00 | 49 | 1016.6 |
| 20260506192229 | 44 | 269 | 1.7 | 2.6 | 0.00 | 0.00 | 0.00 | 49 | 1016.8 |
| 20260506191726 | 44 | 235 | 1.7 | 2.6 | 0.00 | 0.00 | 0.00 | 49 | 1016.6 |
| 20260506191222 | 44 | 7 | 1.7 | 2.6 | 0.00 | 0.00 | 0.00 | 48 | 1016.6 |
| 20260506190719 | 44 | 18 | 2.6 | 4.3 | 0.00 | 0.00 | 0.00 | 49 | 1016.7 |
| 20260506190216 | 44 | 167 | 0.0 | 0.0 | 0.00 | 0.00 | 0.00 | 49 | 1016.5 |
| 20260506185713 | 44 | 168 | 2.6 | 2.6 | 0.00 | 0.00 | 0.00 | 48 | 1016.5 |
| 20260506185209 | 44 | 232 | 0.9 | 1.7 | 0.00 | 0.00 | 0.00 | 48 | 1016.5 |
| 20260506184707 | 45 | 330 | 4.3 | 7.8 | 0.00 | 0.00 | 0.00 | 48 | 1016.6 |
| 20260506184204 | 45 | 185 | 0.0 | 0.0 | 0.00 | 0.00 | 0.00 | 48 | 1016.5 |
| 20260506183701 | 44 | 48 | 3.5 | 4.3 | 0.00 | 0.00 | 0.00 | 48 | 1016.5 |
| 20260506183156 | 43 | 134 | 0.9 | 1.7 | 0.00 | 0.00 | 0.00 | 50 | 1016.8 |
| 20260506182654 | 43 | 139 | 0.0 | 1.7 | 0.00 | 0.00 | 0.00 | 50 | 1016.7 |
| 20260506182152 | 43 | 312 | 2.6 | 4.3 | 0.00 | 0.00 | 0.00 | 48 | 1016.6 |
| 20260506181649 | 44 | 269 | 4.3 | 6.1 | 0.00 | 0.00 | 0.00 | 48 | 1016.7 |
| 20260506181146 | 44 | 341 | 4.3 | 6.1 | 0.00 | 0.00 | 0.00 | 48 | 1016.9 |
| 20260506180643 | 44 | 73 | 2.6 | 4.3 | 0.00 | 0.00 | 0.00 | 48 | 1016.5 |
| 20260506180139 | 44 | 159 | 1.7 | 1.7 | 0.00 | 0.00 | 0.00 | 50 | 1016.7 |
| 20260506175636 | 43 | 183 | 1.7 | 1.7 | 0.00 | 0.00 | 0.00 | 50 | 1016.7 |
| 20260506175132 | 43 | 247 | 1.7 | 2.6 | 0.00 | 0.00 | 0.00 | 49 | 1016.9 |
| 20260506174631 | 43 | 296 | 4.3 | 6.1 | 0.00 | 0.00 | 0.00 | 49 | 1016.9 |
| 20260506174127 | 43 | 205 | 1.7 | 1.7 | 0.00 | 0.00 | 0.00 | 50 | 1016.8 |
| 20260506173625 | 43 | 31 | 3.5 | 4.3 | 0.00 | 0.00 | 0.00 | 50 | 1016.9 |
| 20260506173121 | 43 | 337 | 1.7 | 2.6 | 0.00 | 0.00 | 0.00 | 49 | 1017.1 |
| 20260506172619 | 43 | 168 | 1.7 | 2.6 | 0.00 | 0.00 | 0.00 | 49 | 1016.9 |
| 20260506172115 | 43 | 39 | 1.7 | 2.6 | 0.00 | 0.00 | 0.00 | 51 | 1016.9 |
| 20260506171613 | 43 | 162 | 2.6 | 4.3 | 0.00 | 0.00 | 0.00 | 49 | 1017.1 |
| 20260506171111 | 43 | 32 | 1.7 | 2.6 | 0.00 | 0.00 | 0.00 | 49 | 1017.1 |
| 20260506170608 | 42 | 258 | 0.9 | 1.7 | 0.00 | 0.00 | 0.00 | 51 | 1017.3 |
| 20260506170105 | 42 | 248 | 2.6 | 4.3 | 0.00 | 0.00 | 0.00 | 51 | 1017.2 |
| 20260506165603 | 43 | 203 | 2.6 | 4.3 | 0.00 | 0.00 | 0.00 | 49 | 1017.3 |
| 20260506165059 | 42 | 183 | 0.9 | 1.7 | 0.00 | 0.00 | 0.00 | 51 | 1017.4 |
| 20260506164556 | 42 | 142 | 0.9 | 1.7 | 0.00 | 0.00 | 0.00 | 52 | 1017.3 |
| 20260506164053 | 42 | 14 | 2.6 | 4.3 | 0.00 | 0.00 | 0.00 | 50 | 1017.2 |
| 20260506163549 | 42 | 101 | 3.5 | 4.3 | 0.00 | 0.00 | 0.00 | 50 | 1017.3 |
| 20260506163046 | 42 | 201 | 1.7 | 1.7 | 0.00 | 0.00 | 0.00 | 51 | 1017.2 |
| 20260506162542 | 42 | 352 | 3.5 | 7.8 | 0.00 | 0.00 | 0.00 | 50 | 1017.2 |
| 20260506162039 | 42 | 14 | 4.3 | 8.7 | 0.00 | 0.00 | 0.00 | 50 | 1017.2 |
| 20260506161536 | 42 | 322 | 2.6 | 6.1 | 0.00 | 0.00 | 0.00 | 51 | 1017.2 |
| 20260506161033 | 42 | 347 | 5.2 | 8.7 | 0.00 | 0.00 | 0.00 | 50 | 1017.2 |
| 20260506160531 | 42 | 283 | 3.5 | 6.1 | 0.00 | 0.00 | 0.00 | 49 | 1017.3 |
| 20260506160028 | 42 | 59 | 1.7 | 1.7 | 0.00 | 0.00 | 0.00 | 50 | 1017.1 |
| 20260506155526 | 42 | 129 | 6.1 | 10.4 | 0.00 | 0.00 | 0.00 | 49 | 1017.1 |
| 20260506153657 | 43 | 82 | 7.0 | 8.7 | 0.00 | 0.00 | 0.00 | 48 | 1017.1 |
| 20260506153154 | 43 | 83 | 5.2 | 12.2 | 0.00 | 0.00 | 0.00 | 50 | 1016.8 |
| 20260506152651 | 43 | 305 | 2.6 | 6.1 | 0.00 | 0.00 | 0.00 | 49 | 1016.9 |
| 20260506152149 | 43 | 17 | 5.2 | 6.1 | 0.00 | 0.00 | 0.00 | 49 | 1016.9 |
| 20260506151648 | 43 | 270 | 1.7 | 1.7 | 0.00 | 0.00 | 0.00 | 50 | 1017.2 |
| 20260506151144 | 42 | 193 | 0.9 | 1.7 | 0.00 | 0.00 | 0.00 | 52 | 1017.1 |
| 20260506150641 | 42 | 229 | 3.5 | 6.1 | 0.00 | 0.00 | 0.00 | 51 | 1016.9 |
| 20260506150138 | 42 | 130 | 6.1 | 7.8 | 0.00 | 0.00 | 0.00 | 50 | 1017.3 |
| 20260506145635 | 41 | 30 | 3.5 | 6.1 | 0.00 | 0.00 | 0.00 | 51 | 1017.1 |
| 20260506145131 | 41 | 225 | 4.3 | 6.1 | 0.00 | 0.00 | 0.00 | 53 | 1017.1 |
| 20260506144629 | 40 | 111 | 0.0 | 1.7 | 0.00 | 0.00 | 0.00 | 54 | 1017.1 |
| 20260506144125 | 40 | 314 | 6.1 | 8.7 | 0.00 | 0.00 | 0.00 | 52 | 1017.2 |
| 20260506143623 | 40 | 337 | 4.3 | 8.7 | 0.00 | 0.00 | 0.00 | 52 | 1017.2 |
| 20260506143121 | 40 | 182 | 0.9 | 1.7 | 0.00 | 0.00 | 0.00 | 52 | 1017.2 |
| 20260506142619 | 40 | 346 | 5.2 | 10.4 | 0.00 | 0.00 | 0.00 | 52 | 1017.3 |
| 20260506142117 | 40 | 181 | 0.9 | 1.7 | 0.00 | 0.00 | 0.00 | 53 | 1017.1 |
| 20260506141614 | 40 | 303 | 4.3 | 7.8 | 0.00 | 0.00 | 0.00 | 53 | 1017.2 |
| 20260506141112 | 41 | 308 | 6.1 | 8.7 | 0.00 | 0.00 | 0.00 | 51 | 1017.1 |
| 20260506140610 | 40 | 179 | 0.9 | 1.7 | 0.00 | 0.00 | 0.00 | 53 | 1017.1 |
| 20260506140107 | 40 | 5 | 1.7 | 2.6 | 0.00 | 0.00 | 0.00 | 54 | 1017.2 |
| 20260506135603 | 40 | 262 | 1.7 | 1.7 | 0.00 | 0.00 | 0.00 | 54 | 1016.9 |
| 20260506135100 | 40 | 341 | 1.7 | 2.6 | 0.00 | 0.00 | 0.00 | 53 | 1016.8 |
| 20260506134556 | 40 | 274 | 2.6 | 2.6 | 0.00 | 0.00 | 0.00 | 54 | 1016.8 |
| 20260506134052 | 40 | 186 | 2.6 | 2.6 | 0.00 | 0.00 | 0.00 | 54 | 1016.8 |
| 20260506133549 | 40 | 176 | 0.9 | 1.7 | 0.00 | 0.00 | 0.00 | 54 | 1016.9 |
| 20260506133046 | 40 | 181 | 0.0 | 0.0 | 0.00 | 0.00 | 0.00 | 54 | 1016.7 |
| 20260506132544 | 40 | 259 | 1.7 | 2.6 | 0.00 | 0.00 | 0.00 | 54 | 1016.6 |
| 20260506132041 | 40 | 188 | 0.0 | 1.7 | 0.00 | 0.00 | 0.00 | 55 | 1016.6 |
| 20260506131538 | 40 | 289 | 1.7 | 1.7 | 0.00 | 0.00 | 0.00 | 55 | 1016.6 |
| 20260506131034 | 39 | 181 | 1.7 | 1.7 | 0.00 | 0.00 | 0.00 | 56 | 1016.5 |
| 20260506130531 | 39 | 301 | 2.6 | 2.6 | 0.00 | 0.00 | 0.00 | 56 | 1016.8 |
| 20260506130029 | 39 | 178 | 0.9 | 1.7 | 0.00 | 0.00 | 0.00 | 57 | 1016.4 |
| 20260506125527 | 38 | 48 | 2.6 | 2.6 | 0.00 | 0.00 | 0.00 | 58 | 1016.3 |
| 20260506125024 | 38 | 126 | 1.7 | 2.6 | 0.00 | 0.00 | 0.00 | 58 | 1016.4 |
| 20260506124522 | 38 | 318 | 3.5 | 4.3 | 0.00 | 0.00 | 0.00 | 59 | 1016.2 |
| 20260506124020 | 37 | 158 | 0.0 | 0.0 | 0.00 | 0.00 | 0.00 | 61 | 1016.2 |
| 20260506123517 | 37 | 18 | 2.6 | 4.3 | 0.00 | 0.00 | 0.00 | 61 | 1016.1 |
| 20260506123015 | 37 | 315 | 2.6 | 2.6 | 0.00 | 0.00 | 0.00 | 61 | 1016.2 |
| 20260506122512 | 37 | 337 | 2.6 | 4.3 | 0.00 | 0.00 | 0.00 | 62 | 1016.0 |
| 20260506122010 | 36 | 145 | 0.0 | 0.0 | 0.00 | 0.00 | 0.00 | 63 | 1016.1 |
| 20260506121507 | 35 | 179 | 0.9 | 1.7 | 0.00 | 0.00 | 0.00 | 64 | 1015.9 |
| 20260506121003 | 35 | 154 | 1.7 | 2.6 | 0.00 | 0.00 | 0.00 | 65 | 1015.8 |
| 20260506120501 | 35 | 168 | 0.9 | 1.7 | 0.00 | 0.00 | 0.00 | 65 | 1015.7 |
| 20260506115958 | 35 | 221 | 0.0 | 1.7 | 0.00 | 0.00 | 0.00 | 66 | 1015.7 |
| 20260506115456 | 35 | 238 | 1.7 | 2.6 | 0.00 | 0.00 | 0.00 | 67 | 1015.5 |
| 20260506114954 | 34 | 243 | 1.7 | 2.6 | 0.00 | 0.00 | 0.00 | 68 | 1015.5 |
| 20260506114451 | 34 | 1 | 0.9 | 1.7 | 0.00 | 0.00 | 0.00 | 69 | 1015.4 |
| 20260506113950 | 33 | 339 | 2.6 | 4.3 | 0.00 | 0.00 | 0.00 | 70 | 1015.4 |
| 20260506113447 | 33 | 269 | 0.9 | 1.7 | 0.00 | 0.00 | 0.00 | 70 | 1015.4 |
| 20260506112943 | 33 | 162 | 0.0 | 1.7 | 0.00 | 0.00 | 0.00 | 71 | 1015.4 |
| 20260506112441 | 33 | 205 | 0.9 | 1.7 | 0.00 | 0.00 | 0.00 | 70 | 1015.2 |
| 20260506111938 | 33 | 228 | 1.7 | 1.7 | 0.00 | 0.00 | 0.00 | 71 | 1015.1 |
| 20260506111437 | 32 | 186 | 0.0 | 0.0 | 0.00 | 0.00 | 0.00 | 72 | 1015.2 |
| 20260506110933 | 32 | 188 | 0.0 | 0.0 | 0.00 | 0.00 | 0.00 | 71 | 1015.4 |
| 20260506110431 | 32 | 172 | 0.0 | 0.0 | 0.00 | 0.00 | 0.00 | 71 | 1015.6 |
| 20260506105927 | 32 | 167 | 0.0 | 0.0 | 0.00 | 0.00 | 0.00 | 71 | 1015.4 |
| 20260506105424 | 32 | 180 | 0.0 | 0.0 | 0.00 | 0.00 | 0.00 | 73 | 1015.4 |
| 20260506104921 | 31 | 162 | 0.0 | 1.7 | 0.00 | 0.00 | 0.00 | 75 | 1015.6 |
| 20260506104419 | 30 | 170 | 0.0 | 0.0 | 0.00 | 0.00 | 0.00 | 75 | 1015.4 |
| 20260506103917 | 30 | 171 | 0.0 | 0.0 | 0.00 | 0.00 | 0.00 | 75 | 1015.5 |
| 20260506103414 | 30 | 167 | 0.0 | 0.0 | 0.00 | 0.00 | 0.00 | 74 | 1015.5 |
| 20260506102911 | 30 | 173 | 0.0 | 0.0 | 0.00 | 0.00 | 0.00 | 74 | 1015.3 |
| 20260506102409 | 30 | 173 | 0.0 | 0.0 | 0.00 | 0.00 | 0.00 | 73 | 1015.3 |
| 20260506101906 | 30 | 173 | 0.0 | 0.0 | 0.00 | 0.00 | 0.00 | 74 | 1015.0 |
| 20260506101402 | 30 | 173 | 0.0 | 0.0 | 0.00 | 0.00 | 0.00 | 75 | 1015.0 |
| 20260506100859 | 30 | 172 | 0.0 | 0.0 | 0.00 | 0.00 | 0.00 | 74 | 1014.8 |
| 20260506100358 | 30 | 170 | 0.0 | 0.0 | 0.00 | 0.00 | 0.00 | 74 | 1014.9 |
| 20260506095856 | 30 | 170 | 0.0 | 0.0 | 0.00 | 0.00 | 0.00 | 74 | 1015.0 |
| 20260506095354 | 30 | 168 | 0.0 | 0.0 | 0.00 | 0.00 | 0.00 | 74 | 1015.2 |
| 20260506094850 | 30 | 168 | 0.0 | 0.0 | 0.00 | 0.00 | 0.00 | 74 | 1014.9 |
| 20260506094349 | 30 | 176 | 0.0 | 0.0 | 0.00 | 0.00 | 0.00 | 75 | 1014.9 |
| 20260506093846 | 30 | 175 | 0.0 | 0.0 | 0.00 | 0.00 | 0.00 | 75 | 1014.7 |
| 20260506093343 | 30 | 177 | 0.0 | 0.0 | 0.00 | 0.00 | 0.00 | 74 | 1014.9 |
| 20260506092841 | 30 | 177 | 0.0 | 0.0 | 0.00 | 0.00 | 0.00 | 74 | 1014.9 |
| 20260506092339 | 30 | 171 | 0.0 | 0.0 | 0.00 | 0.00 | 0.00 | 74 | 1015.0 |
| 20260506091835 | 30 | 172 | 0.0 | 0.0 | 0.00 | 0.00 | 0.00 | 74 | 1014.9 |
| 20260506091333 | 30 | 172 | 0.0 | 0.0 | 0.00 | 0.00 | 0.00 | 75 | 1015.1 |
| 20260506090830 | 30 | 172 | 0.0 | 0.0 | 0.00 | 0.00 | 0.00 | 75 | 1014.9 |
| 20260506090328 | 30 | 172 | 0.0 | 0.0 | 0.00 | 0.00 | 0.00 | 75 | 1015.0 |
| 20260506085824 | 30 | 172 | 0.0 | 0.0 | 0.00 | 0.00 | 0.00 | 74 | 1014.9 |
| 20260506085320 | 30 | 172 | 0.0 | 0.0 | 0.00 | 0.00 | 0.00 | 73 | 1014.7 |
| 20260506084817 | 30 | 172 | 0.0 | 0.0 | 0.00 | 0.00 | 0.00 | 73 | 1014.6 |
| 20260506084314 | 30 | 172 | 0.0 | 0.0 | 0.00 | 0.00 | 0.00 | 71 | 1014.7 |
| 20260506083810 | 31 | 172 | 0.0 | 0.0 | 0.00 | 0.00 | 0.00 | 70 | 1014.6 |
| 20260506083308 | 31 | 172 | 0.0 | 0.0 | 0.00 | 0.00 | 0.00 | 70 | 1014.6 |
| 20260506082806 | 32 | 172 | 0.0 | 0.0 | 0.00 | 0.00 | 0.00 | 70 | 1014.6 |
| 20260506082304 | 32 | 172 | 0.0 | 0.0 | 0.00 | 0.00 | 0.00 | 70 | 1014.4 |
| 20260506081758 | 32 | 172 | 0.0 | 0.0 | 0.00 | 0.00 | 0.00 | 69 | 1014.6 |
| 20260506081256 | 32 | 172 | 0.0 | 0.0 | 0.00 | 0.00 | 0.00 | 68 | 1014.7 |
| 20260506080754 | 32 | 172 | 0.0 | 0.0 | 0.00 | 0.00 | 0.00 | 68 | 1014.8 |
| 20260506080250 | 32 | 172 | 0.0 | 0.0 | 0.00 | 0.00 | 0.00 | 68 | 1014.8 |
| 20260506073234 | 34 | 203 | 0.0 | 1.7 | 0.00 | 0.00 | 0.00 | 63 | 1014.5 |
| 20260506072731 | 35 | 177 | 0.0 | 0.0 | 0.00 | 0.00 | 0.00 | 63 | 1014.3 |
| 20260506072228 | 35 | 177 | 0.0 | 0.0 | 0.00 | 0.00 | 0.00 | 62 | 1014.2 |
| 20260506071726 | 35 | 180 | 0.0 | 1.7 | 0.00 | 0.00 | 0.00 | 62 | 1014.3 |
| 20260506071224 | 35 | 186 | 0.0 | 0.0 | 0.00 | 0.00 | 0.00 | 61 | 1014.2 |
| 20260506070720 | 36 | 180 | 0.0 | 0.0 | 0.00 | 0.00 | 0.00 | 61 | 1014.5 |
| 20260506070217 | 36 | 176 | 0.0 | 0.0 | 0.00 | 0.00 | 0.00 | 60 | 1014.5 |
| 20260506062154 | 37 | 181 | 0.0 | 0.0 | 0.00 | 0.00 | 0.00 | 57 | 1014.2 |
| 20260506061650 | 37 | 144 | 0.9 | 1.7 | 0.00 | 0.00 | 0.00 | 57 | 1014.4 |
| 20260506061148 | 37 | 181 | 0.0 | 1.7 | 0.00 | 0.00 | 0.00 | 57 | 1014.4 |
| 20260506060646 | 38 | 169 | 0.0 | 0.0 | 0.00 | 0.00 | 0.00 | 56 | 1014.4 |
| 20260506060143 | 38 | 180 | 1.7 | 2.6 | 0.00 | 0.00 | 0.00 | 55 | 1014.3 |
| 20260506051115 | 39 | 164 | 0.9 | 1.7 | 0.00 | 0.00 | 0.00 | 55 | 1014.0 |
| 20260506050613 | 39 | 198 | 0.0 | 1.7 | 0.00 | 0.00 | 0.00 | 54 | 1013.9 |
| 20260506050110 | 39 | 341 | 0.9 | 1.7 | 0.00 | 0.00 | 0.00 | 55 | 1013.7 |
| 20260506045103 | 39 | 282 | 0.0 | 1.7 | 0.00 | 0.00 | 0.00 | 54 | 1013.8 |
| 20260506044602 | 40 | 181 | 0.0 | 0.0 | 0.00 | 0.00 | 0.00 | 54 | 1013.7 |
| 20260506044058 | 40 | 238 | 0.9 | 1.7 | 0.00 | 0.00 | 0.00 | 54 | 1013.8 |
| 20260506043555 | 40 | 117 | 1.7 | 1.7 | 0.00 | 0.00 | 0.00 | 53 | 1013.7 |
| 20260506043053 | 40 | 175 | 0.0 | 0.0 | 0.00 | 0.00 | 0.00 | 54 | 1013.5 |
| 20260506042552 | 40 | 179 | 1.7 | 2.6 | 0.00 | 0.00 | 0.00 | 54 | 1013.6 |
| 20260506042049 | 40 | 183 | 0.9 | 1.7 | 0.00 | 0.00 | 0.00 | 53 | 1013.6 |
| 20260506041548 | 40 | 214 | 0.0 | 1.7 | 0.00 | 0.00 | 0.00 | 54 | 1013.6 |
| 20260506041044 | 41 | 273 | 1.7 | 2.6 | 0.00 | 0.00 | 0.00 | 53 | 1013.7 |
| 20260506040542 | 41 | 175 | 0.0 | 1.7 | 0.00 | 0.00 | 0.00 | 51 | 1013.6 |
| 20260506040038 | 41 | 327 | 2.6 | 2.6 | 0.00 | 0.00 | 0.00 | 51 | 1013.7 |
| 20260506035535 | 41 | 178 | 1.7 | 2.6 | 0.00 | 0.00 | 0.00 | 51 | 1013.8 |
| 20260506035032 | 41 | 307 | 3.5 | 4.3 | 0.00 | 0.00 | 0.00 | 51 | 1013.7 |
| 20260506034529 | 41 | 160 | 0.9 | 1.7 | 0.00 | 0.00 | 0.00 | 51 | 1013.4 |
| 20260506034026 | 42 | 160 | 1.7 | 1.7 | 0.00 | 0.00 | 0.00 | 50 | 1013.7 |
| 20260506033523 | 42 | 156 | 0.0 | 1.7 | 0.00 | 0.00 | 0.00 | 51 | 1013.4 |
| 20260506033021 | 42 | 25 | 1.7 | 2.6 | 0.00 | 0.00 | 0.00 | 50 | 1013.6 |
| 20260506032518 | 42 | 180 | 0.0 | 0.0 | 0.00 | 0.00 | 0.00 | 50 | 1013.4 |
| 20260506032014 | 43 | 143 | 3.5 | 4.3 | 0.00 | 0.00 | 0.00 | 50 | 1013.3 |
| 20260506031512 | 43 | 298 | 1.7 | 2.6 | 0.00 | 0.00 | 0.00 | 50 | 1013.4 |
| 20260506031009 | 43 | 168 | 1.7 | 2.6 | 0.00 | 0.00 | 0.00 | 50 | 1013.5 |
| 20260506030507 | 43 | 244 | 1.7 | 2.6 | 0.00 | 0.00 | 0.00 | 50 | 1013.5 |
| 20260506030004 | 43 | 134 | 0.0 | 1.7 | 0.00 | 0.00 | 0.00 | 50 | 1013.2 |
| 20260506025500 | 43 | 15 | 1.7 | 2.6 | 0.00 | 0.00 | 0.00 | 50 | 1013.2 |
| 20260506024957 | 43 | 347 | 3.5 | 6.1 | 0.00 | 0.00 | 0.00 | 50 | 1012.9 |
| 20260506024454 | 43 | 173 | 0.0 | 0.0 | 0.00 | 0.00 | 0.00 | 50 | 1012.8 |
| 20260506023949 | 43 | 205 | 0.9 | 1.7 | 0.00 | 0.00 | 0.00 | 49 | 1012.7 |
| 20260506023447 | 44 | 151 | 0.9 | 1.7 | 0.00 | 0.00 | 0.00 | 49 | 1012.7 |
| 20260506022943 | 44 | 194 | 0.9 | 1.7 | 0.00 | 0.00 | 0.00 | 48 | 1012.4 |
| 20260506022441 | 44 | 211 | 0.0 | 1.7 | 0.00 | 0.00 | 0.00 | 48 | 1012.4 |
| 20260506021939 | 44 | 210 | 0.0 | 0.0 | 0.00 | 0.00 | 0.00 | 47 | 1012.5 |
| 20260506021436 | 44 | 192 | 2.6 | 4.3 | 0.00 | 0.00 | 0.00 | 46 | 1012.4 |
| 20260506020933 | 44 | 234 | 1.7 | 2.6 | 0.00 | 0.00 | 0.00 | 46 | 1012.2 |
| 20260506020431 | 45 | 138 | 0.0 | 0.0 | 0.00 | 0.00 | 0.00 | 46 | 1012.2 |
| 20260506015927 | 45 | 191 | 1.7 | 2.6 | 0.00 | 0.00 | 0.00 | 45 | 1012.1 |
| 20260506015425 | 45 | 273 | 2.6 | 2.6 | 0.00 | 0.00 | 0.00 | 45 | 1012.0 |
| 20260506014922 | 45 | 280 | 2.6 | 2.6 | 0.00 | 0.00 | 0.00 | 45 | 1012.0 |
| 20260506014419 | 45 | 264 | 1.7 | 1.7 | 0.00 | 0.00 | 0.00 | 44 | 1012.1 |
| 20260506013915 | 46 | 274 | 4.3 | 6.1 | 0.00 | 0.00 | 0.00 | 45 | 1012.1 |
| 20260506013414 | 46 | 264 | 0.9 | 1.7 | 0.00 | 0.00 | 0.00 | 44 | 1011.7 |
| 20260506012909 | 46 | 347 | 2.6 | 4.3 | 0.00 | 0.00 | 0.00 | 44 | 1011.7 |
| 20260506012406 | 46 | 87 | 3.5 | 4.3 | 0.00 | 0.00 | 0.00 | 44 | 1011.6 |
| 20260506011903 | 46 | 184 | 0.0 | 1.7 | 0.00 | 0.00 | 0.00 | 44 | 1011.7 |
| 20260506011400 | 47 | 185 | 1.7 | 1.7 | 0.00 | 0.00 | 0.00 | 43 | 1011.6 |
| 20260506010857 | 47 | 235 | 5.2 | 7.8 | 0.00 | 0.00 | 0.00 | 43 | 1011.5 |
| 20260506010355 | 47 | 292 | 5.2 | 8.7 | 0.00 | 0.00 | 0.00 | 43 | 1011.4 |
| 20260506005852 | 47 | 300 | 1.7 | 2.6 | 0.00 | 0.00 | 0.00 | 43 | 1011.5 |
| 20260506005349 | 48 | 214 | 1.7 | 4.3 | 0.00 | 0.00 | 0.00 | 43 | 1011.4 |
| 20260506004844 | 48 | 182 | 0.9 | 1.7 | 0.00 | 0.00 | 0.00 | 42 | 1011.3 |
| 20260506004343 | 48 | 166 | 3.5 | 4.3 | 0.00 | 0.00 | 0.00 | 40 | 1011.4 |
| 20260506003839 | 49 | 9 | 5.2 | 7.8 | 0.00 | 0.00 | 0.00 | 40 | 1011.5 |
| 20260506003335 | 49 | 274 | 0.9 | 2.6 | 0.00 | 0.00 | 0.00 | 40 | 1011.0 |
| 20260506002831 | 49 | 301 | 3.5 | 4.3 | 0.00 | 0.00 | 0.00 | 40 | 1011.2 |
| 20260506002328 | 49 | 337 | 2.6 | 4.3 | 0.00 | 0.00 | 0.00 | 40 | 1011.2 |
| 20260506001823 | 49 | 323 | 6.1 | 12.2 | 0.00 | 0.00 | 0.00 | 39 | 1011.1 |
| 20260506001321 | 49 | 13 | 2.6 | 2.6 | 0.00 | 0.00 | 0.00 | 40 | 1011.0 |
| 20260506000818 | 49 | 144 | 3.5 | 6.1 | 0.00 | 0.00 | 0.00 | 40 | 1010.8 |
| 20260506000316 | 49 | 291 | 2.6 | 2.6 | 0.00 | 0.00 | 0.00 | 39 | 1010.8 |
| 20260505235812 | 49 | 173 | 1.7 | 2.6 | 0.00 | 0.00 | 0.00 | 39 | 1010.8 |
| 20260505235310 | 49 | 289 | 4.3 | 6.1 | 0.00 | 0.00 | 0.00 | 39 | 1011.0 |
| 20260505234806 | 49 | 215 | 1.7 | 1.7 | 0.00 | 0.00 | 0.00 | 40 | 1010.8 |
| 20260505234304 | 49 | 7 | 3.5 | 4.3 | 0.00 | 0.00 | 0.00 | 39 | 1010.9 |
| 20260505233801 | 49 | 320 | 2.6 | 2.6 | 0.00 | 0.00 | 0.00 | 40 | 1010.7 |
| 20260505233259 | 49 | 335 | 4.3 | 7.8 | 0.00 | 0.00 | 0.00 | 39 | 1010.7 |
| 20260505232755 | 49 | 359 | 4.3 | 4.3 | 0.00 | 0.00 | 0.00 | 40 | 1010.8 |
| 20260505232253 | 49 | 177 | 0.0 | 1.7 | 0.00 | 0.00 | 0.00 | 40 | 1010.8 |
| 20260505231749 | 49 | 247 | 0.9 | 1.7 | 0.00 | 0.00 | 0.00 | 41 | 1010.8 |
| 20260505231248 | 49 | 272 | 1.7 | 4.3 | 0.00 | 0.00 | 0.00 | 40 | 1010.9 |
| 20260505230746 | 50 | 166 | 1.7 | 2.6 | 0.00 | 0.00 | 0.00 | 39 | 1010.8 |
| 20260505230242 | 50 | 242 | 1.7 | 1.7 | 0.00 | 0.00 | 0.00 | 39 | 1010.8 |
| 20260505225739 | 50 | 359 | 2.6 | 2.6 | 0.00 | 0.00 | 0.00 | 39 | 1010.9 |
| 20260505225236 | 51 | 204 | 2.6 | 4.3 | 0.00 | 0.00 | 0.00 | 39 | 1010.7 |
| 20260505224731 | 53 | 337 | 3.5 | 4.3 | 0.00 | 0.00 | 0.00 | 36 | 1010.7 |
| 20260505224229 | 52 | 349 | 3.5 | 6.1 | 0.00 | 0.00 | 0.00 | 37 | 1010.7 |
| 20260505223727 | 53 | 182 | 4.3 | 7.8 | 0.00 | 0.00 | 0.00 | 37 | 1010.8 |
| 20260505223223 | 52 | 192 | 3.5 | 4.3 | 0.00 | 0.00 | 0.00 | 39 | 1010.7 |
| 20260505222719 | 51 | 217 | 2.6 | 2.6 | 0.00 | 0.00 | 0.00 | 39 | 1010.7 |
| 20260505222215 | 51 | 168 | 3.5 | 6.1 | 0.00 | 0.00 | 0.00 | 39 | 1010.7 |
| 20260505221713 | 51 | 137 | 2.6 | 2.6 | 0.00 | 0.00 | 0.00 | 39 | 1010.7 |
| 20260505221209 | 50 | 322 | 2.6 | 4.3 | 0.00 | 0.00 | 0.00 | 39 | 1010.8 |
| 20260505220706 | 51 | 9 | 3.5 | 4.3 | 0.00 | 0.00 | 0.00 | 40 | 1010.8 |
| 20260505220204 | 51 | 257 | 4.3 | 7.8 | 0.00 | 0.00 | 0.00 | 39 | 1010.8 |
| 20260505215701 | 50 | 37 | 7.0 | 8.7 | 0.00 | 0.00 | 0.00 | 39 | 1011.0 |
| 20260505215159 | 50 | 310 | 3.5 | 4.3 | 0.00 | 0.00 | 0.00 | 40 | 1010.9 |
| 20260505214657 | 50 | 221 | 0.9 | 1.7 | 0.00 | 0.00 | 0.00 | 39 | 1010.7 |
| 20260505214154 | 50 | 57 | 3.5 | 4.3 | 0.00 | 0.00 | 0.00 | 39 | 1011.0 |
| 20260505213651 | 50 | 329 | 8.7 | 13.0 | 0.00 | 0.00 | 0.00 | 38 | 1010.8 |
| 20260505213148 | 51 | 0 | 4.3 | 6.1 | 0.00 | 0.00 | 0.00 | 38 | 1010.9 |
| 20260505212644 | 51 | 217 | 5.2 | 6.1 | 0.00 | 0.00 | 0.00 | 39 | 1010.7 |
| 20260505212142 | 51 | 72 | 2.6 | 2.6 | 0.00 | 0.00 | 0.00 | 38 | 1010.8 |
| 20260505211638 | 51 | 0 | 3.5 | 4.3 | 0.00 | 0.00 | 0.00 | 38 | 1010.8 |
| 20260505211136 | 51 | 172 | 0.0 | 1.7 | 0.00 | 0.00 | 0.00 | 41 | 1010.7 |
| 20260505210632 | 51 | 328 | 1.7 | 2.6 | 0.00 | 0.00 | 0.00 | 38 | 1010.9 |
| 20260505210129 | 51 | 187 | 1.7 | 2.6 | 0.00 | 0.00 | 0.00 | 38 | 1010.9 |
| 20260505205626 | 51 | 198 | 1.7 | 1.7 | 0.00 | 0.00 | 0.00 | 39 | 1010.9 |
| 20260505205125 | 51 | 154 | 1.7 | 1.7 | 0.00 | 0.00 | 0.00 | 38 | 1011.0 |
| 20260505204621 | 51 | 358 | 1.7 | 2.6 | 0.00 | 0.00 | 0.00 | 40 | 1011.1 |
| 20260505204119 | 51 | 322 | 1.7 | 2.6 | 0.00 | 0.00 | 0.00 | 40 | 1010.9 |
| 20260505203615 | 51 | 354 | 4.3 | 6.1 | 0.00 | 0.00 | 0.00 | 39 | 1011.0 |
| 20260505203113 | 51 | 12 | 4.3 | 4.3 | 0.00 | 0.00 | 0.00 | 39 | 1011.0 |
| 20260505202608 | 51 | 356 | 1.7 | 6.1 | 0.00 | 0.00 | 0.00 | 38 | 1011.0 |
| 20260505202104 | 52 | 283 | 6.1 | 8.7 | 0.00 | 0.00 | 0.00 | 37 | 1011.1 |
| 20260505201601 | 51 | 333 | 3.5 | 7.8 | 0.00 | 0.00 | 0.00 | 38 | 1011.1 |
| 20260505201059 | 51 | 220 | 1.7 | 2.6 | 0.00 | 0.00 | 0.00 | 39 | 1011.2 |
| 20260505200557 | 51 | 335 | 2.6 | 4.3 | 0.00 | 0.00 | 0.00 | 39 | 1011.3 |
| 20260505200053 | 52 | 262 | 3.5 | 4.3 | 0.00 | 0.00 | 0.00 | 38 | 1011.0 |